< < Back
Terminal Aerodrome Forecast


Current Version              Previous Versions:   1  2  3  4  5  6  7  8  9  

Terminal Aerodrome Forecast

219
FTUS44 KMRX 231720
TAFTYS
TAF
KTYS 231720Z 2318/2418 03008KT P6SM SKC
     FM240100 03003KT P6SM SKC=

Latest METAR

482
SAUS80 KWBC 242300
MTRTYS
METAR KTYS 242253Z 24009KT 10SM OVC250 23/03 A2988 RMK AO2 SLP112
T02330033


USA.gov is the U.S. government's official web portal to all federal, state and local government web resources and services.